Weather History for Cape Girardeau, MO

Change the Weather History Date:

Thursday, May 22, 2014

  Actual Average Record
Temperature  
Mean Temperature 78 °F 68 °F  
Max Temperature 89 °F 80 °F 94 °F (1962)
Min Temperature 67 °F 57 °F 43 °F (1963)
Degree Days  
Heating Degree Days 0 1  
Month to date heating degree days 78 60  
Since 1 July heating degree days 4941 4378  
Cooling Degree Days 13 5  
Month to date cooling degree days 103 69  
Year to date cooling degree days 114 100  
Growing Degree Days 28 (Base 50)    
Moisture  
Dew Point 65 °F    
Average Humidity 69    
Maximum Humidity 90    
Minimum Humidity 48    
Precipitation  
Precipitation 0.00 in 0.16 in 1.90 in (1985)
Month to date precipitation 4.29 4.10  
Year to date precipitation 17.75 19.74  
Sea Level Pressure  
Sea Level Pressure 30.03 in    
Wind  
Wind Speed 7 mph (NW)    
Max Wind Speed 13 mph    
Max Gust Speed 17 mph    
Visibility 10 miles    
Events      
T = Trace of Precipitation, MM = Missing Value Source: NWS Daily Summary

Daily Weather History Graph

Daily Weather History Graph

Search for Another Location

Airport:

Trip Planner

Search our weather history database for the weather conditions in past years. The results will help you decide how hot, cold, wet, or windy it might be!

Date:

Astronomy

May. 22, 2014 Rise Set
Actual Time 5:44 AM CDT 8:05 PM CDT
Civil Twilight 5:14 AM CDT 8:35 PM CDT
Nautical Twilight 4:38 AM CDT 9:12 PM CDT
Astronomical Twilight 3:58 AM CDT 9:52 PM CDT
Moon 1:55 AM CDT (5/22) 2:01 PM CDT (5/22)
Length of Visible Light 15h 20m
Length of Day
14h 21m
Last Quarter, 37% of the Moon is Illuminated
May 22
Last Quarter
May 28
New
Jun 5
First Quarter
Jun 12
Full
Jun 19
Last Quarter

Hourly Weather History & Observations

Time (CDT) Temp. Heat Index Dew Point Humidity Pressure Visibility Wind Dir Wind Speed Gust Speed Precip Events Conditions
12:53 AM 73.0 °F - 64.0 °F 73% 30.01 in 10.0 mi SW 5.8 mph - N/A   Clear
1:53 AM 72.0 °F - 64.0 °F 76% 29.99 in 10.0 mi WSW 9.2 mph - N/A   Clear
2:53 AM 72.0 °F - 64.0 °F 76% 29.99 in 10.0 mi WSW 10.4 mph - N/A   Clear
3:53 AM 71.1 °F - 64.0 °F 78% 30.00 in 10.0 mi WSW 10.4 mph - N/A   Scattered Clouds
4:53 AM 71.1 °F - 64.9 °F 81% 30.01 in 10.0 mi West 8.1 mph - N/A   Overcast
5:53 AM 68.0 °F - 64.0 °F 87% 30.02 in 10.0 mi WSW 3.5 mph - N/A   Clear
6:53 AM 70.0 °F - 66.0 °F 87% 30.03 in 10.0 mi Calm Calm - N/A   Overcast
7:53 AM 73.0 °F - 66.9 °F 81% 30.05 in 10.0 mi WSW 3.5 mph - N/A   Mostly Cloudy
8:53 AM 77.0 °F - 68.0 °F 74% 30.06 in 10.0 mi WSW 9.2 mph - N/A   Clear
9:53 AM 80.1 °F 82.9 °F 69.1 °F 69% 30.08 in 10.0 mi North - - N/A   Unknown
10:53 AM - - - N/A% 30.09 in - North - - N/A   Unknown
11:53 AM 84.0 °F 87.8 °F 69.1 °F 61% 30.08 in 10.0 mi NNW 8.1 mph - N/A   Partly Cloudy
12:53 PM 86.0 °F 90.7 °F 70.0 °F 59% 30.06 in 10.0 mi NW 8.1 mph - N/A   Clear
1:53 PM 86.0 °F 90.7 °F 70.0 °F 59% 30.06 in 10.0 mi North 11.5 mph - N/A   Scattered Clouds
2:53 PM 88.0 °F 91.4 °F 68.0 °F 51% 30.04 in 10.0 mi NNE 4.6 mph - N/A   Clear
3:53 PM 88.0 °F 90.3 °F 66.0 °F 48% 30.02 in 10.0 mi NW 4.6 mph - N/A   Clear
4:53 PM 88.0 °F 90.7 °F 66.9 °F 49% 30.00 in 10.0 mi NNW 5.8 mph - N/A   Clear
5:53 PM 86.0 °F 87.3 °F 64.4 °F 48% 30.01 in 10.0 mi NE 10.4 mph - N/A   Overcast
6:53 PM 82.9 °F 84.0 °F 63.0 °F 51% 29.99 in 10.0 mi NE 6.9 mph - N/A   Clear
7:53 PM 80.1 °F 81.5 °F 63.0 °F 56% 30.02 in 10.0 mi NNE 5.8 mph - N/A   Clear
8:53 PM 79.0 °F - 62.1 °F 56% 30.03 in 10.0 mi NE 9.2 mph - N/A   Partly Cloudy
9:53 PM 75.9 °F - 62.1 °F 62% 30.05 in 10.0 mi NE 5.8 mph - N/A   Partly Cloudy
10:53 PM 75.9 °F - 62.1 °F 62% 30.06 in 10.0 mi Calm Calm - N/A   Overcast
11:53 PM 73.9 °F - 60.1 °F 62% 30.06 in 10.0 mi NE 5.8 mph - N/A   Mostly Cloudy